Regional Weather Roundup
Issued by NWS Upton, NY

Current Version | Previous Version | Text Only | Print | Product List | Glossary On
Versions: 1 2 3 4 5 6 7 8 9 10 11 12 13 14 15 16 17 18 19 20 21 22 23 24 25 26 27 28 29 30 31 32 33 34 35 36 37 38 39 40 41 42 43 44 45 46 47 48 49 50
539 ASUS41 KOKX 240009 RWROKX REGIONAL WEATHER ROUNDUP NATIONAL WEATHER SERVICE NEW YORK NY 800 PM EDT MON OCT 23 2017 NOTE: "FAIR" INDICATES FEW OR NO CLOUDS BELOW 12,000 FEET WITH NO SIGNIFICANT WEATHER AND/OR OBSTRUCTIONS TO VISIBILITY. NYZ071-072-176-178-NJZ106-104-240100- NEW YORK CITY METRO AREA CITY SKY/WX TMP DP RH WIND PRES REMARKS Central Park CLOUDY 69 62 78 VRB5 30.10F Bronx Bot Gard N/A 68 61 77 SW3 30.09F LaGuardia APRT CLOUDY 70 62 76 SE12 30.07F Kennedy INTL MOCLDY 67 64 90 SE18 30.09F Breezy Point N/A 66 N/A N/A SE18 N/A Newark/Liberty CLOUDY 68 63 84 SE12 30.07F Teterboro CLOUDY 71 63 75 S14G21 30.06F $$ NYZ177-179-078>081-240100- LONG ISLAND NEW YORK CITY SKY/WX TMP DP RH WIND PRES REMARKS Jones Beach N/A 66 N/A N/A SE14G21 N/A Matinecock PT N/A 68 N/A N/A SE6G15 N/A Farmingdale CLOUDY 67 62 84 SE16 30.11F MacArthur/ISP CLOUDY 67 64 90 SE13 30.12F Shirley CLOUDY 69 66 90 SE12G17 30.13F Mt Sinai Harb N/A N/A N/A N/A S10 N/A Westhampton CLOUDY 66 63 90 SE7 30.16S East Hampton FAIR 64 63 95 SE8 30.15F Montauk N/A 65 65 100 S6 30.17F $$ NYZ052-065-067-240100- HUDSON VALLEY CITY SKY/WX TMP DP RH WIND PRES REMARKS White Plains MOCLDY 67 61 81 SE9 30.10F Larchmont Harb N/A 68 N/A N/A SE17 N/A Croton On Huds N/A 68 N/A N/A S5 N/A Newburgh CLOUDY 68 63 83 S14 30.10F Montgomery CLOUDY 68 61 78 SE8 30.06F Poughkeepsie CLOUDY 68 60 75 VRB7 30.07F Albany CLOUDY 69 57 65 S6 30.07F $$ NJZ001-105-106-008-010-013-015-019>022-104-240100- NEW JERSEY CITY SKY/WX TMP DP RH WIND PRES REMARKS Newark/Liberty CLOUDY 68 63 84 SE12 30.07F Teterboro CLOUDY 71 63 75 S14G21 30.06F Caldwell CLOUDY 68 65 90 SE8G20 30.08F Somerville CLOUDY 69 64 84 SE8 30.03F Linden MOCLDY 68 63 83 S8 30.07F Perth Amboy N/A 68 N/A N/A SE14 N/A Sussex CLOUDY 68 63 84 MISG 30.06F Andover N/A 68 62 81 VRB7 30.05F Trenton CLOUDY 70 64 81 SE14 30.03F Millville MOCLDY 71 68 90 SE10 30.01F Atlantic City CLOUDY 71 67 87 SE14G25 30.04 Wrightstown CLOUDY 69 65 86 SE14G20 30.02F Toms River N/A 68 65 90 SE14G20 30.06F Belmar CLOUDY 68 64 87 SE12G20 30.08F $$ PAZ047>061-062-071-240100- EASTERN PENNSYLVANIA CITY SKY/WX TMP DP RH WIND PRES REMARKS Philadelphia CLOUDY 70 64 81 SE12 30.01F Allentown CLOUDY 71 62 73 SE8G18 30.01F Scranton MOCLDY 70 60 70 VRB6G20 29.99F $$ CTZ002-004>006-009-010-012-RIZ004-006-007-MAZ004-011-015-240100- SOUTHERN NEW ENGLAND IN CT CITY SKY/WX TMP DP RH WIND PRES REMARKS Bradley INTL MOCLDY 64 60 87 SE6 30.14F Hartford MOCLDY 66 62 87 S5 30.14F Danbury CLOUDY 67 61 81 VRB5 30.13F Wtrbury/Oxford MOCLDY 64 62 93 SE9 30.15F Norwalk Harbor N/A 66 N/A N/A SE12 N/A Bridgeport CLOUDY 67 63 87 SE8 30.12F Meriden CLOUDY 65 62 90 S6 30.14F New Haven CLOUDY 67 63 87 SE6 30.14F Chester FAIR 64 63 94 SE5 30.16F Groton CLOUDY 66 63 90 SE9 30.15F Wilimantic CLOUDY 66 63 90 S5 30.16F IN RI CITY SKY/WX TMP DP RH WIND PRES REMARKS Providence CLOUDY 66 65 96 S9 30.19S FOG Block Island CLOUDY 65 63 93 S14 30.17F Westerly CLOUDY 66 64 93 SE5 30.18S IN MA CITY SKY/WX TMP DP RH WIND PRES REMARKS Boston CLOUDY 57 57 100 CALM 30.19F Worcester CLOUDY 62 57 83 SE7 30.18F Westfield MOCLDY 65 60 84 S5 30.14S Provincetown CLEAR 63 62 97 S6 30.21F Nantucket CLEAR 63 63 100 SE14 30.21F $$ ANZ330-335-338-340-345-350-353-355-240100- COASTAL MARINE OBSERVATIONS STATION/POSITION TIME SKY/WX TEMP WIND PRES VSBY WAVE AIR SEA DIR/SP/G HT/PER (UTC) (F) (DEG/KT/KT) (MB) (MI) (FT/S) NY HARB ENTRANCE 2350 67 65 140/ 17/ 21 1017.8 3/ 4 20 S FIRE ISLAND 2250 66 65 140/ 14/ 16 1020.0 2/ 9 GREAT SOUTH BAY 2330 66 63 150/ 12/ 16 N/A 15 E BARNEGAT LI NOT AVBL HUDSON CANYON 2250 66 65 120/ 14/ 16 1019.8 3/ 9 KINGS POINT 2330 69 66 190/ 12/ 21 1019.8 EXECUTION ROCKS 2330 69 130/ 10/ 14 N/A WESTERN LI SOUND 2319 68 140/ 10/ 12 N/A 1 CENTRAL LI SOUND NOT AVBL EASTERN LI SOUND NOT AVBL ROBBINS REEF 2330 68 160/ 15/ 22 1019.4 $$ >>>>>>>>>>>>>>>>>>>>>>>>>>>> KEY <<<<<<<<<<<<<<<<<<<<<<<<<<< > < > SKY/WX - Sky Condition/Present Weather < > TMP - Temperature in Fahrenheit < > DP - Dew Point in Fahrenheit < > RH - Relative Humidity in Percent < > WIND - Direction (from) and Speed in MPH < > PRES - Mean Sea Level Pressure (inches of Hg) < > WCI - Wind Chill Index < > VSB - VISIBILITY IN MILES < > HX - HEAT INDEX < > TC - TEMPERATURE IN CELSIUS < > VRB - VARIABLE WIND DIRECTION < > < >>>>>>>>>>>>>>>>>>>>>>>>>>>> KEY <<<<<<<<<<<<<<<<<<<<<<<<<<<

USA.gov is the U.S. government's official web portal to all federal, state and local government web resources and services.